Hourly Data Report for May 11, 2019

MIRAMICHI RCS
NEW BRUNSWICK
Current Station Operator: ECCC - MSC

47°00'34.000" N
65°27'54.000" W
33.00 m
8100989
71744
ACQ

Download Data

Hourly Data (May 2019)
Hourly Data Report for May 11, 2019
TIME
LST
Temp Definition
°C
Dew Point Definition
°C
Rel Hum Definition
%
Precip. Amount Definition
mm

Wind Dir Definition
10's deg

Wind Spd Definition
km/h
Visibility Definition
km
Stn Press Definition
kPa
Hmdx Definition


Wind Chill Definition


Weather Definition


00:00 5.3 4.6 95 0.0 16 7   100.78     LegendNANA
01:00 5.3 4.6 96 0.2 16 8   100.67     LegendNANA
02:00 5.3 4.6 95 0.7 16 8   100.56     LegendNANA
03:00 5.3 4.6 96 0.0 16 8   100.46     LegendNANA
04:00 5.2 4.5 96 0.0 16 7   100.39     LegendNANA
05:00 5.2 4.6 96 0.0 17 5   100.33     LegendNANA
06:00 5.4 5.0 97 0.0 19 6   100.29     LegendNANA
07:00 5.8 5.4 97 0.0 22 8   100.28     LegendNANA
08:00 6.8 6.1 96 0.0 25 11   100.21     LegendNANA
09:00 8.3 6.9 91 0.0 28 10   100.20     LegendNANA
10:00 9.6 7.2 85 0.0 27 12   100.20     LegendNANA
11:00 11.0 7.1 77 0.0 29 12   100.17     LegendNANA
12:00 11.6 6.4 70 0.0 26 13   100.12     LegendNANA
13:00 11.7 4.0 59 0.0 27 25   100.13     LegendNANA
14:00 11.8 4.3 60 0.0 31 19   100.18     LegendNANA
15:00 11.9 2.1 51 0.0 29 23   100.18     LegendNANA
16:00 11.6 0.6 47 0.0 30 23   100.20     LegendNANA
17:00 11.4 0.1 46 0.0 30 24   100.23     LegendNANA
18:00 11.1 1.3 51 0.0 30 20   100.30     LegendNANA
19:00 9.9 0.0 50 0.0 31 27   100.36     LegendNANA
20:00 8.4 0.1 56 0.0 30 20   100.43     LegendNANA
21:00 8.4 -0.8 52 0.0 31 17   100.51     LegendNANA
22:00 7.8 -1.5 52 0.0 31 14   100.51     LegendNANA
23:00 6.8 -2.4 52 0.0 30 24   100.50     LegendNANA

Notes on Data Quality.

Legend

  • E = Estimated
  • M = Missing
  • NA = Not Available*
  • [empty] = Indicates an unobserved value
Date modified: